Location: Wavehorne
(51.0500°N, 0.8333°E)
Time: 02:58:32
(UTC+00:00)

Cosmos 1825 Rocket - Pass Details

Date: 20 June 2021
Orbit: 603 x 631 km, 82.5° (Epoch: 04 August)

Event Time Altitude Azimuth Distance (km) Brightness Sun altitude
Exits shadow 00:45:40 24° 203° (SSW) 1,297 4.6 -14.8°
Maximum altitude 00:48:16 69° 282° (WNW) 680 3.7 -14.7°
Drops below altitude 10° 00:52:43 10° 6° (N) 2,016 7.6 -14.6°
Sets 00:54:59 0° 9° (N) 2,924 9.0 -14.5°
